Pipestone, MN

8:35 AM CST on February 24, 2018 (GMT -0600)
Pipestone Municipal

Weather History for KPQN - March, 2014

Change the Weather History Date:

Tuesday, March 18, 2014

  Actual Average Record
Temperature  
Mean Temperature 32 °F -  
Max Temperature 37 °F 37 °F 80 °F (2012)
Min Temperature 28 °F 21 °F 10 °F (2013)
Degree Days  
Heating Degree Days 32    
Moisture  
Dew Point 29 °F    
Average Humidity 90    
Maximum Humidity 100    
Minimum Humidity 75    
Precipitation  
Precipitation 0.00 in - - ()
Sea Level Pressure  
Sea Level Pressure 29.61 in    
Wind  
Wind Speed 14 mph (NE)    
Max Wind Speed 25 mph    
Max Gust Speed 34 mph    
Visibility 7 miles    
Events Snow    
Averages and records for this station are not official NWS values.
T = Trace of Precipitation, MM = Missing Value Source: NWS Daily Summary

Daily Weather History Graph

Daily Weather History Graph

Search for Another Location

Airport or City:

Trip Planner

Search our weather history database for the weather conditions in past years. The results will help you decide how hot, cold, wet, or windy it might be!

Date:

Astronomy

Mar. 18, 2014 Rise Set
Actual Time 7:31 AM CDT 7:35 PM CDT
Civil Twilight 7:03 AM CDT 8:03 PM CDT
Nautical Twilight 6:29 AM CDT 8:37 PM CDT
Astronomical Twilight 5:55 AM CDT 9:12 PM CDT
Moon 9:59 PM CDT (3/18) 8:17 AM CDT (3/18)
Length of Visible Light 13h 00m
Length of Day
12h 03m
Waning Gibbous, 96% of the Moon is Illuminated
Mar 18
Waning Gibbous
Mar 23
Last Quarter
Mar 30
New
Apr 7
First Quarter
Apr 15
Full

Hourly Weather History & Observations

Time (CDT) Temp. Windchill Dew Point Humidity Pressure Visibility Wind Dir Wind Speed Gust Speed Precip Events Conditions
12:13 AM 37.4 °F 29.3 °F 30.2 °F 75% 29.39 in 10.0 mi ESE 12.7 mph 17.3 mph N/A   Scattered Clouds
12:33 AM 37.4 °F 29.3 °F 30.2 °F 75% 29.39 in 10.0 mi East 12.7 mph 16.1 mph N/A   Scattered Clouds
12:53 AM 35.6 °F 27.5 °F 30.2 °F 81% 29.40 in 10.0 mi East 11.5 mph - N/A   Clear
1:13 AM 35.6 °F 27.5 °F 30.2 °F 81% 29.41 in 10.0 mi ESE 11.5 mph - N/A   Clear
1:33 AM 35.6 °F 27.1 °F 30.2 °F 81% 29.41 in 10.0 mi East 12.7 mph - N/A   Clear
1:53 AM 35.6 °F 28.0 °F 30.2 °F 81% 29.41 in 10.0 mi East 10.4 mph - N/A   Clear
2:13 AM 35.6 °F 26.2 °F 30.2 °F 81% 29.41 in 10.0 mi East 15.0 mph - N/A   Scattered Clouds
2:33 AM 33.8 °F 23.9 °F 30.2 °F 87% 29.41 in 10.0 mi East 15.0 mph - N/A   Clear
2:53 AM 33.8 °F 23.9 °F 30.2 °F 87% 29.41 in 10.0 mi East 15.0 mph - N/A   Scattered Clouds
3:13 AM 33.8 °F 23.9 °F 30.2 °F 87% 29.42 in 10.0 mi East 15.0 mph 18.4 mph N/A   Scattered Clouds
3:33 AM 33.8 °F 26.4 °F 30.2 °F 87% 29.44 in 10.0 mi East 9.2 mph - N/A   Mostly Cloudy
3:53 AM 33.8 °F 25.8 °F 30.2 °F 87% 29.44 in 10.0 mi East 10.4 mph - N/A   Mostly Cloudy
4:13 AM 33.8 °F 26.4 °F 30.2 °F 87% 29.44 in 10.0 mi East 9.2 mph - N/A   Scattered Clouds
4:33 AM 33.8 °F 25.8 °F 30.2 °F 87% 29.45 in 10.0 mi East 10.4 mph 18.4 mph N/A   Mostly Cloudy
4:53 AM 33.8 °F 25.3 °F 30.2 °F 87% 29.46 in 10.0 mi East 11.5 mph 21.9 mph N/A   Overcast
5:13 AM 33.8 °F 25.8 °F 30.2 °F 87% 29.46 in 10.0 mi East 10.4 mph 19.6 mph N/A   Overcast
5:33 AM 33.8 °F 25.3 °F 30.2 °F 87% 29.46 in 10.0 mi East 11.5 mph - N/A   Mostly Cloudy
5:53 AM 33.8 °F 25.8 °F 30.2 °F 87% 29.48 in 10.0 mi East 10.4 mph 17.3 mph N/A   Overcast
6:13 AM 33.8 °F 24.8 °F 30.2 °F 87% 29.49 in 10.0 mi East 12.7 mph 17.3 mph N/A   Overcast
6:32 AM 33.8 °F 25.3 °F 30.2 °F 87% 29.50 in 10.0 mi East 11.5 mph - N/A   Scattered Clouds
6:53 AM 33.8 °F 24.3 °F 30.2 °F 87% 29.50 in 10.0 mi East 13.8 mph - N/A   Mostly Cloudy
7:13 AM 33.8 °F 27.0 °F 30.2 °F 87% 29.51 in 10.0 mi ENE 8.1 mph - N/A   Overcast
7:32 AM 33.8 °F 25.8 °F 30.2 °F 87% 29.52 in 10.0 mi ENE 10.4 mph - N/A   Overcast
7:53 AM 32.0 °F 23.6 °F 30.2 °F 93% 29.53 in 7.0 mi ENE 10.4 mph 18.4 mph N/A   Scattered Clouds
8:13 AM 32.0 °F 22.1 °F 30.2 °F 93% 29.55 in 7.0 mi ENE 13.8 mph - N/A   Scattered Clouds
8:33 AM 32.0 °F 21.2 °F 30.2 °F 93% 29.55 in 7.0 mi ENE 16.1 mph 23.0 mph N/A   Mostly Cloudy
8:53 AM 30.2 °F 18.9 °F 30.2 °F 100% 29.55 in 5.0 mi NE 16.1 mph 24.2 mph N/A   Overcast
9:13 AM 30.2 °F 19.3 °F 28.4 °F 93% 29.56 in 5.0 mi NE 15.0 mph 24.2 mph N/A   Overcast
9:33 AM 30.2 °F 17.8 °F 28.4 °F 93% 29.56 in 5.0 mi ENE 19.6 mph 26.5 mph N/A   Overcast
9:53 AM 30.2 °F 19.3 °F 28.4 °F 93% 29.57 in 5.0 mi NE 15.0 mph 21.9 mph N/A   Overcast
10:13 AM 30.2 °F 19.3 °F 30.2 °F 100% 29.58 in 7.0 mi ENE 15.0 mph 24.2 mph N/A   Overcast
10:33 AM 32.0 °F 20.8 °F 28.4 °F 87% 29.58 in 7.0 mi NE 17.3 mph 21.9 mph N/A   Overcast
10:53 AM 30.2 °F 18.5 °F 28.4 °F 93% 29.59 in 7.0 mi NE 17.3 mph 24.2 mph N/A   Overcast
11:13 AM 30.2 °F 19.3 °F 28.4 °F 93% 29.60 in 7.0 mi ENE 15.0 mph 23.0 mph N/A   Overcast
11:33 AM 30.2 °F 18.5 °F 28.4 °F 93% 29.61 in 7.0 mi NE 17.3 mph 23.0 mph N/A   Overcast
11:53 AM 30.2 °F 18.5 °F 28.4 °F 93% 29.63 in 4.0 mi ENE 17.3 mph 23.0 mph N/A   Overcast
12:13 PM 30.2 °F 19.3 °F 28.4 °F 93% 29.64 in 4.0 mi NE 15.0 mph 25.3 mph N/A   Overcast
12:33 PM 30.2 °F 18.5 °F 28.4 °F 93% 29.65 in 3.0 mi NE 17.3 mph - N/A   Overcast
12:53 PM 30.2 °F 18.5 °F 28.4 °F 93% 29.64 in 5.0 mi NE 17.3 mph 24.2 mph N/A   Overcast
1:12 PM 30.2 °F 17.1 °F 28.4 °F 93% 29.62 in 4.0 mi NE 21.9 mph 26.5 mph N/A   Overcast
1:33 PM 30.2 °F 17.8 °F 28.4 °F 93% 29.60 in 4.0 mi NE 19.6 mph 29.9 mph N/A   Overcast
1:53 PM 28.4 °F 14.1 °F 28.4 °F 100% 29.62 in 2.5 mi NNE 24.2 mph 31.1 mph N/A   Overcast
2:14 PM 28.4 °F 16.2 °F 26.6 °F 93% 29.62 in 1.8 mi NNE 17.3 mph 31.1 mph N/A   Overcast
2:33 PM 28.4 °F 15.1 °F 28.4 °F 100% 29.63 in 2.5 mi NE 20.7 mph 32.2 mph N/A Snow Light Snow
2:53 PM 28.4 °F 13.8 °F 26.6 °F 93% 29.63 in 0.2 mi NE 25.3 mph 34.5 mph N/A Snow Snow
3:13 PM 28.4 °F 14.1 °F 26.6 °F 93% 29.64 in 0.5 mi NE 24.2 mph 31.1 mph N/A Snow Light Snow
3:33 PM 28.4 °F 15.8 °F 26.6 °F 93% 29.65 in 1.0 mi NE 18.4 mph 24.2 mph N/A Snow Light Snow
3:53 PM 28.4 °F 15.4 °F 26.6 °F 93% 29.65 in 2.0 mi NE 19.6 mph 26.5 mph N/A Snow Light Snow
4:13 PM 28.4 °F 15.4 °F 26.6 °F 93% 29.66 in 1.8 mi NE 19.6 mph 31.1 mph N/A Snow Light Snow
4:33 PM 28.4 °F 15.4 °F 26.6 °F 93% 29.67 in 0.8 mi NNE 19.6 mph 29.9 mph N/A Snow Light Snow
4:53 PM 28.4 °F 16.6 °F 26.6 °F 93% 29.68 in - NE 16.1 mph 23.0 mph N/A   Overcast
5:13 PM 28.4 °F 16.2 °F 26.6 °F 93% 29.69 in - NNE 17.3 mph - N/A   Overcast
5:33 PM 28.4 °F 16.6 °F 26.6 °F 93% 29.70 in - NNE 16.1 mph 21.9 mph N/A   Overcast
5:53 PM 28.4 °F 16.6 °F 26.6 °F 93% 29.72 in - NNE 16.1 mph 23.0 mph N/A   Unknown
6:13 PM 28.4 °F 16.6 °F 26.6 °F 93% 29.72 in - NNE 16.1 mph 23.0 mph N/A   Unknown
6:33 PM 28.4 °F 16.6 °F 26.6 °F 93% 29.74 in - NNE 16.1 mph 21.9 mph N/A   Overcast
6:54 PM 28.4 °F 15.8 °F 26.6 °F 93% 29.75 in - NNE 18.4 mph 24.2 mph N/A   Overcast
7:13 PM 28.4 °F 16.2 °F 26.6 °F 93% 29.76 in - NNE 17.3 mph 24.2 mph N/A   Overcast
7:33 PM 28.4 °F 16.6 °F 26.6 °F 93% 29.76 in - NNE 16.1 mph 21.9 mph N/A   Overcast
7:53 PM 28.4 °F 16.6 °F 26.6 °F 93% 29.77 in - NNE 16.1 mph 24.2 mph N/A   Unknown
8:13 PM - - - N/A% 29.78 in - NNE 17.3 mph 23.0 mph N/A   Unknown
8:33 PM - - - N/A% 29.79 in - NNE 17.3 mph 23.0 mph N/A   Unknown
8:54 PM - - - N/A% 29.79 in - NNE 17.3 mph 24.2 mph N/A   Unknown
9:13 PM 30.2 °F 19.3 °F 26.6 °F 86% 29.80 in - NNE 15.0 mph 23.0 mph N/A   Overcast
9:33 PM 30.2 °F 19.3 °F 26.6 °F 86% 29.80 in - NNE 15.0 mph 21.9 mph N/A   Overcast
9:54 PM 30.2 °F 20.2 °F 28.4 °F 93% 29.81 in - NNE 12.7 mph 18.4 mph N/A   Overcast
10:13 PM 30.2 °F 20.8 °F 28.4 °F 93% 29.82 in - NNE 11.5 mph - N/A   Unknown
10:33 PM 30.2 °F 19.8 °F 28.4 °F 93% 29.82 in - NNE 13.8 mph 18.4 mph N/A   Unknown
10:53 PM 30.2 °F 21.3 °F 28.4 °F 93% 29.82 in - NNE 10.4 mph - N/A   Overcast
11:13 PM 30.2 °F 19.3 °F 28.4 °F 93% 29.83 in - North 15.0 mph 20.7 mph N/A   Overcast
11:33 PM 30.2 °F 20.2 °F 28.4 °F 93% 29.83 in - North 12.7 mph 20.7 mph N/A   Overcast
11:53 PM 30.2 °F 20.8 °F 28.4 °F 93% 29.84 in - North 11.5 mph 20.7 mph N/A   Overcast